Home   Weather   Dijon   Past weeks

Flag for France Past Weather in Dijon, Burgundy, France — Yesterday and Last 2 Weeks

Now
16 °F

Ice fog.


Feels Like: 10 °F
Forecast: 17 / 26 °F
Wind: 3 mph from North

Location: Dijon Airport

Current Time: Jan 24, 2017 at 8:30:38 am

Latest Report: Jan 24, 2017 at 7:30 am


Visibility: 1 mi

Pressure: 30.30 "Hg

Humidity: 93%

Dew Point: 14 °F

Location of DijonLocation

Past Weather in Dijon — Graph

°F

Dijon Temperature Yesterday

Maximum temperature yesterday: 37 °F (at 3:00 pm)
Minimum temperature yesterday: 18 °F (at 8:30 am)
Average temperature yesterday: 28 °F

High & Low Weather Summary for the Past Weeks

 TemperatureHumidityPressure
High46 °F (Jan 12, 10:30 pm)100% (Jan 9, 7:00 am)30.42 "Hg (Jan 9, 7:00 am)
Low16 °F (Jan 20, 7:00 am)48% (Jan 23, 3:30 pm)29.53 "Hg (Jan 12, 9:30 pm)
Average31 °F80%30.18 "Hg
* Reported Jan 9 7:00 am — Jan 24 7:00 am, Dijon, Weather by CustomWeather, © 2017

Note: Actual official high and low records may vary slightly from our data, if they occured in-between our weather recording intervals... More about our weather records

Advertising

Dijon Weather History for the Previous 24 Hours

Scroll right to see more
 ConditionsComfort  
Time TempWeatherWind HumidityBarometerVisibility
7:00 am
Tue, Jan 24
16 °FIce fog.5 mph100%30.30 "Hg1 mi
6:30 am16 °FIce fog.5 mph86%30.27 "Hg1 mi
6:00 am16 °FIce fog.3 mph93%30.27 "Hg2 mi
5:30 am18 °FIce fog.3 mph86%30.27 "Hg2 mi
5:00 am18 °FIce fog.6 mph86%30.27 "Hg2 mi
4:30 am18 °FIce fog.5 mph93%30.27 "Hg2 mi
4:00 am18 °FIce fog.3 mph93%30.27 "Hg2 mi
3:30 am19 °FIce fog.5 mph86%30.27 "Hg2 mi
3:00 am21 °FIce fog.5 mph86%30.27 "Hg3 mi
2:30 am21 °FIce fog.5 mph86%30.27 "Hg3 mi
2:00 am21 °FIce fog.6 mph86%30.27 "Hg3 mi
1:30 am23 °FClear.6 mph80%30.27 "Hg4 mi
1:00 am23 °FClear.7 mph74%30.27 "Hg4 mi
12:30 am25 °FClear.6 mph80%30.27 "Hg4 mi
12:00 am27 °FClear.7 mph74%30.24 "Hg4 mi
11:30 pm
Mon, Jan 23
27 °FClear.8 mph74%30.24 "Hg4 mi
11:00 pm27 °FClear.9 mph74%30.24 "Hg4 mi
10:30 pm28 °FClear.9 mph69%30.24 "Hg4 mi
10:00 pm28 °FClear.8 mph69%30.24 "Hg4 mi
9:30 pm28 °FClear.8 mph69%30.24 "Hg4 mi
9:00 pm27 °FClear.6 mph74%30.24 "Hg4 mi
8:30 pm27 °FClear.6 mph74%30.24 "Hg4 mi
8:00 pm27 °FClear.3 mph74%30.24 "Hg4 mi
7:30 pm28 °FClear.6 mph69%30.24 "Hg4 mi
7:00 pm28 °FClear.6 mph69%30.24 "Hg4 mi
6:30 pm30 °FClear.5 mph64%30.24 "Hg5 mi
6:00 pm32 °FClear.7 mph60%30.24 "Hg5 mi
5:30 pm32 °FClear.8 mph60%30.21 "Hg6 mi
5:00 pm36 °FClear.9 mph56%30.21 "Hg6 mi
4:30 pm36 °FClear.9 mph56%30.21 "Hg5 mi
4:00 pm37 °FClear.12 mph52%30.21 "Hg5 mi
3:30 pm37 °FClear.13 mph48%30.21 "Hg5 mi
3:00 pm37 °FClear.12 mph52%30.21 "Hg5 mi
2:30 pm36 °FClear.13 mph56%30.21 "Hg4 mi
2:00 pm36 °FClear.13 mph56%30.21 "Hg4 mi
1:30 pm34 °FClear.12 mph60%30.21 "Hg4 mi
1:00 pm34 °FClear.9 mph60%30.24 "Hg4 mi
12:30 pm32 °FClear.9 mph64%30.24 "Hg4 mi
12:00 pm30 °FHaze.10 mph69%30.24 "Hg3 mi
11:30 am28 °FHaze.8 mph69%30.27 "Hg3 mi
11:00 am28 °FIce fog.7 mph69%30.27 "Hg3 mi
10:30 am27 °FIce fog.5 mph74%30.27 "Hg3 mi
10:00 am25 °FIce fog.1 mph80%30.24 "Hg2 mi
9:30 am21 °FIce fog.2 mph86%30.24 "Hg2 mi
9:00 am18 °FIce fog.3 mph93%30.24 "Hg2 mi
8:30 am18 °FIce fog.No wind93%30.24 "Hg2 mi
8:00 am19 °FIce fog.3 mph86%30.24 "Hg3 mi
Weather by CustomWeather, © 2017

See weather overviewHow to use our weather pages